Vorticity
10 10 10 11 11 10 10 10 9 10 11 10 14 11 10 8 4 -0 0 10 9 6 7 6 7 4 2 4 3 3 2 3 6 6 9 6 4 2 4 8 -8 -14 -9 -1 -12 -37 -49 -44 -0 30 16 7 7 1 -1 3 6 7 7 9 10 9 7 6 7 3 -0 -4 -1 6 6 4 4 5 7 10 12 10 8 8 8 11 15 9 2 3 4 5 5 3 3 2 2 2 2 2 2
10 12 11 11 12 13 12 12 11 12 13 10 11 5 9 11 0 1 5 8 6 1 1 1 4 12 9 5 2 0 1 -3 -2 -6 -2 -2 -3 2 1 6 -6 -17 -10 2 14 -5 -21 2 26 25 14 9 8 9 10 10 10 9 9 11 9 5 4 4 6 1 -8 -15 -7 7 9 5 4 5 6 9 11 12 8 9 11 8 13 14 3 3 5 4 6 4 3 4 2 2 2 2 2
13 13 12 12 12 15 14 14 14 13 12 8 7 4 9 6 -4 5 15 12 3 1 3 -1 -3 6 7 6 4 1 3 -0 -0 -3 -2 -1 -4 1 -0 4 -3 -10 0 3 12 16 11 15 18 18 14 9 10 13 12 11 10 9 9 9 9 7 4 3 3 1 -7 -9 0 9 12 7 4 5 6 8 10 13 9 7 12 11 11 9 1 1 5 4 5 5 4 3 2 3 1 -0 1
13 11 13 14 12 17 15 7 6 8 8 7 9 8 7 -0 1 7 12 12 3 3 4 3 0 -1 2 2 4 5 6 3 3 3 2 4 3 5 4 2 1 5 13 9 5 12 15 14 16 15 8 7 9 7 7 7 6 5 5 4 4 3 2 1 0 2 2 4 7 10 13 9 5 5 6 9 10 12 11 7 7 11 10 7 4 2 5 6 6 6 4 3 3 1 -2 -2 2
12 12 16 14 10 14 12 7 8 10 8 10 6 3 5 3 8 3 11 23 8 -0 -2 5 6 -2 2 2 5 4 2 4 3 5 2 5 11 11 8 5 13 20 15 10 8 9 15 17 14 10 7 7 5 5 6 6 7 7 6 6 5 5 5 5 4 5 7 10 12 12 12 10 6 4 6 8 10 11 12 11 4 4 6 8 7 3 6 8 8 8 5 3 -0 -1 1 4 3
13 14 16 12 6 9 10 8 10 8 4 10 5 3 8 2 1 -3 11 27 8 -1 -1 4 7 -1 1 2 5 4 4 5 1 9 11 4 5 9 11 14 17 17 14 18 21 19 16 12 9 9 6 5 6 8 9 9 10 9 10 11 12 13 14 15 15 14 13 13 14 16 14 11 7 5 7 9 10 10 11 14 9 1 2 11 9 3 8 9 10 8 3 0 1 3 4 4 1
14 13 14 12 7 8 10 6 7 4 1 8 3 1 6 -0 2 11 20 23 8 5 8 8 9 3 0 -0 3 4 1 -5 -2 17 23 12 8 12 16 21 21 17 20 18 17 16 11 7 8 9 9 10 11 10 10 10 9 10 11 12 12 13 14 13 13 15 15 14 14 17 16 12 8 5 7 10 9 9 11 14 15 7 0 10 11 1 3 8 8 3 -1 1 1 1 2 1 1
12 11 8 7 6 8 10 8 11 8 2 4 -2 -7 2 -2 -11 10 24 12 4 4 6 9 8 7 3 -0 -1 -2 -4 -0 16 22 16 17 19 20 20 20 20 24 26 15 7 7 8 11 10 9 10 9 9 11 13 13 12 11 10 10 10 9 10 10 9 10 11 13 13 14 16 14 11 7 7 10 11 9 11 13 15 16 7 5 10 -0 -6 4 5 0 -0 1 1 1 3 2 1
9 9 4 0 1 6 11 8 11 12 3 -1 -3 -6 6 4 -22 -5 14 -2 -1 5 5 5 2 2 0 -0 2 7 9 13 24 21 15 22 24 20 17 12 8 14 20 17 13 10 11 11 8 8 9 10 12 12 12 13 13 9 9 11 10 11 12 12 12 10 9 11 11 12 14 13 11 10 9 9 11 10 10 11 9 20 18 3 6 4 -5 2 6 4 2 0 3 5 3 1 1
4 4 5 3 2 6 11 8 7 10 6 -1 2 4 2 -6 -16 0 12 1 4 5 4 4 5 10 13 18 19 20 21 18 19 21 22 22 22 22 19 16 10 9 13 15 13 10 12 10 9 11 10 12 11 10 11 12 11 11 12 12 13 15 15 14 14 13 13 12 11 11 11 10 8 10 12 10 11 11 10 10 8 17 20 4 3 8 1 3 6 3 2 3 5 3 2 1 2
6 6 7 7 6 5 10 9 2 3 4 -3 -2 12 2 -20 -14 6 11 10 7 1 1 7 18 25 24 25 21 17 17 18 20 21 17 11 13 17 18 22 21 15 11 10 9 9 11 12 12 11 9 10 10 11 13 12 10 10 11 11 10 12 14 15 14 13 13 12 11 10 10 11 11 12 14 12 11 12 10 8 9 15 16 6 1 8 5 1 5 4 4 5 5 2 2 2 2
7 7 6 7 9 2 6 9 3 -0 -1 -6 -7 10 13 -2 -1 2 4 12 11 8 10 16 20 18 15 15 15 16 15 15 20 17 10 12 18 18 17 15 13 11 9 9 10 11 12 11 8 5 5 6 8 9 9 6 4 5 7 6 5 7 10 12 13 13 12 11 10 9 8 8 12 18 19 13 10 11 10 4 6 13 13 9 3 4 7 4 3 4 6 6 4 3 1 1 1
7 10 3 7 15 2 4 9 5 3 -1 -3 -4 3 2 -4 3 6 10 17 17 13 12 17 13 9 11 11 14 16 14 12 13 13 10 17 22 16 11 8 9 11 13 14 14 14 11 7 4 3 4 4 5 5 5 3 3 6 7 6 7 9 9 8 9 10 11 11 11 10 8 6 9 19 20 13 10 9 12 4 3 15 12 8 8 5 4 4 5 5 6 6 3 1 -0 0 2
10 12 1 4 12 2 0 5 7 9 8 1 6 39 41 7 4 21 26 21 18 13 8 10 8 8 8 7 14 14 13 14 8 8 11 10 11 8 5 7 12 14 12 12 11 9 6 4 4 3 4 5 6 6 5 6 7 9 9 10 10 12 12 9 8 8 9 12 14 12 9 8 7 16 18 12 9 7 13 6 -0 17 18 9 7 7 5 -0 3 8 5 4 4 1 1 1 2
9 1 -3 5 11 8 3 6 13 8 12 8 5 44 62 28 9 16 18 15 15 13 9 8 8 10 11 13 16 10 12 17 10 9 7 1 5 10 10 11 11 9 7 6 6 5 5 4 4 5 6 7 7 7 7 6 6 8 8 9 9 11 12 10 14 13 12 18 25 20 11 8 6 12 16 11 9 4 10 9 -1 7 17 19 11 5 8 4 0 6 6 4 4 0 0 2 2
5 3 1 3 8 12 7 4 7 6 21 26 8 9 22 16 6 4 7 8 7 5 7 9 13 11 10 15 14 10 12 11 7 10 9 3 7 13 11 9 5 3 4 4 5 5 6 6 6 7 6 6 6 5 4 4 4 6 6 6 8 10 8 9 14 13 12 21 32 29 16 9 6 10 13 9 8 7 8 9 5 5 6 16 22 13 9 10 3 0 2 0 0 -0 0 2 2
1 9 -1 8 18 16 28 33 16 9 22 20 8 5 8 9 3 4 8 7 5 6 9 10 10 7 11 16 11 13 13 8 9 16 15 7 10 12 6 3 0 1 1 2 4 3 5 6 6 5 4 3 3 2 2 3 4 5 5 5 7 7 7 6 9 11 9 13 29 36 23 11 6 6 11 10 7 9 12 8 7 11 7 5 19 25 15 8 4 -1 -2 -3 -1 1 0 2 1
-0 4 6 37 43 19 39 62 33 11 13 7 4 3 2 5 5 6 8 8 10 12 13 11 6 6 16 15 10 14 14 14 17 19 15 9 10 7 2 1 0 2 2 3 3 3 4 4 3 2 2 1 0 1 2 4 5 5 5 5 6 7 7 5 6 9 9 10 22 35 27 12 8 7 7 9 10 11 11 8 5 9 13 7 10 26 21 5 2 2 -0 -1 2 1 -0 2 3
7 17 22 35 30 8 14 26 12 3 7 7 7 3 -1 3 5 4 8 12 11 10 11 12 6 5 14 12 9 15 19 16 6 7 9 5 5 3 2 3 2 4 5 5 3 3 4 3 4 2 2 2 2 3 4 5 5 5 5 6 6 7 7 6 6 6 7 9 14 28 30 14 6 10 10 8 8 9 7 6 8 7 12 13 12 23 22 8 5 6 3 2 3 1 1 4 5
20 29 19 6 7 6 4 4 2 2 5 8 6 2 3 5 7 7 12 15 11 10 11 10 5 6 12 11 5 4 16 14 -6 -2 8 4 4 3 3 3 4 7 6 5 5 5 5 5 6 6 6 6 6 6 6 7 6 6 6 6 6 6 7 6 6 6 6 8 8 16 27 24 13 9 13 11 5 4 6 5 7 8 8 11 17 21 17 10 9 7 2 2 2 0 2 5 5
21 20 9 2 5 1 3 8 4 1 2 7 8 5 7 8 9 10 12 12 10 9 9 7 7 11 11 10 9 4 10 9 -4 1 7 3 2 3 5 6 8 9 7 7 7 6 6 7 7 6 7 6 7 7 7 7 7 8 8 7 6 6 6 5 6 6 6 7 8 8 14 25 26 18 14 12 6 4 8 9 9 9 6 7 16 21 16 14 10 4 1 1 3 1 2 4 5
14 11 8 7 7 3 5 6 3 3 2 4 9 8 7 10 10 8 8 8 9 11 10 9 8 11 9 9 12 8 5 2 0 5 5 3 3 4 7 8 8 7 7 6 6 6 5 6 6 5 6 5 6 6 7 7 6 7 7 8 7 6 5 6 6 6 6 6 7 9 8 12 21 25 20 16 12 8 12 14 10 7 5 3 8 15 14 13 6 0 1 1 3 1 1 4 5
8 5 7 6 5 7 5 3 4 3 5 7 9 8 5 8 11 9 7 8 11 12 10 12 10 10 10 10 11 10 6 3 4 6 4 5 5 6 7 5 6 4 5 6 5 5 5 6 6 7 7 6 6 5 5 5 5 5 6 7 7 7 6 5 7 6 7 6 5 7 9 8 10 14 18 21 20 13 11 12 10 6 5 5 6 10 9 8 4 0 0 1 4 1 1 6 5
7 7 4 4 2 6 5 3 7 5 7 6 0 5 8 6 7 8 10 13 14 10 11 14 9 7 9 9 11 10 8 6 6 6 7 8 7 6 5 4 5 4 5 6 5 5 5 6 6 7 8 8 8 7 6 4 4 4 4 6 7 7 6 5 7 7 6 6 6 5 7 9 10 11 10 15 21 19 11 7 9 7 6 6 8 11 11 6 1 3 3 3 8 1 0 6 4
6 12 4 8 5 4 7 4 6 3 4 8 2 3 7 6 6 5 5 9 7 2 11 18 9 7 10 7 8 8 8 8 6 7 8 7 6 5 5 5 5 6 7 5 6 6 5 5 5 6 7 8 9 9 9 6 5 4 2 3 5 7 7 6 5 6 6 5 6 6 5 5 8 12 11 10 13 19 18 12 7 4 4 6 7 10 14 13 3 4 6 5 11 4 1 7 4
-0 5 1 9 8 1 7 9 4 -4 -3 8 9 4 4 6 8 4 2 8 8 2 9 15 9 7 7 4 5 6 5 6 6 7 7 5 5 5 5 5 5 6 6 6 6 5 5 5 6 6 7 7 9 10 10 9 7 5 3 1 2 3 6 8 6 6 6 6 6 6 6 4 4 6 11 14 12 13 18 20 14 6 5 6 8 7 11 19 13 3 0 4 12 7 3 8 6
1 2 4 13 13 4 7 7 3 4 2 -0 5 8 7 7 8 4 4 8 9 7 7 9 6 3 6 6 5 7 7 6 7 8 6 5 5 5 6 5 6 6 5 5 5 4 5 4 5 5 5 6 7 9 9 10 9 7 6 3 2 2 3 6 7 7 6 7 6 6 6 5 5 3 5 11 14 13 13 19 22 16 9 4 6 8 13 22 21 7 -2 4 12 8 5 8 10
14 5 12 21 13 5 5 3 4 11 5 -4 4 7 7 10 8 6 4 6 7 7 7 6 6 6 11 10 6 7 5 -0 2 5 4 5 6 6 7 7 5 5 4 5 4 4 4 3 4 4 5 6 6 7 8 9 11 10 10 7 5 4 4 4 5 7 9 8 5 5 6 7 6 4 3 5 10 13 12 15 23 24 17 7 3 9 18 21 18 10 3 8 14 10 7 9 12
14 -2 11 20 9 6 4 1 8 12 4 3 7 2 3 7 3 4 5 5 6 6 6 3 3 8 13 10 6 10 13 9 4 3 5 5 7 7 6 5 4 4 4 5 4 4 4 3 4 4 5 6 6 7 7 9 10 11 12 11 8 6 5 6 5 6 8 8 7 6 6 7 9 5 3 3 4 8 11 13 20 27 23 14 7 8 16 14 6 8 9 11 15 12 9 11 11
13 5 11 11 8 10 3 3 9 9 9 10 7 1 2 1 -0 4 5 6 5 5 7 3 2 4 9 8 5 10 19 23 7 -3 9 11 6 7 6 6 5 6 6 5 5 4 5 5 4 5 5 5 6 7 7 8 10 10 10 10 10 9 8 8 6 5 6 7 7 8 7 7 9 7 4 3 2 4 8 11 17 27 25 15 11 9 11 7 3 11 16 13 13 13 10 9 9
12 10 8 4 7 9 4 8 6 4 13 10 3 4 3 2 7 8 6 9 7 7 8 7 6 3 9 10 6 9 11 20 11 -9 4 14 7 7 5 7 8 8 8 6 6 5 5 6 5 6 6 7 7 7 8 8 9 9 8 9 10 11 10 9 9 7 6 8 9 10 11 11 10 9 7 5 4 3 4 9 14 23 22 11 8 12 12 8 10 18 22 18 13 12 9 6 9
9 3 6 9 8 8 6 9 5 3 11 6 1 7 5 4 10 9 6 7 6 10 8 6 8 5 15 12 2 10 9 17 15 -11 -2 10 6 11 10 11 11 9 9 7 6 5 5 6 5 6 6 7 8 7 8 8 9 8 7 10 11 11 11 10 10 10 10 11 12 13 15 16 12 9 8 6 6 5 3 5 9 17 21 14 8 10 14 14 12 14 20 21 14 11 6 1 5
8 1 5 9 5 6 5 6 8 5 8 7 4 7 6 3 5 6 4 4 4 9 9 8 10 6 13 10 2 10 5 6 6 -5 8 9 2 14 18 16 9 4 7 6 6 5 6 6 5 7 7 6 7 7 8 8 10 8 7 11 11 12 13 11 11 13 14 14 14 15 16 17 14 9 7 5 5 5 5 3 5 10 16 20 17 13 16 13 5 5 12 12 7 7 5 0 5
8 3 3 8 6 8 3 1 2 1 7 11 8 8 5 1 4 5 6 8 7 7 9 7 9 8 9 8 6 10 8 9 10 9 15 4 3 16 16 16 12 4 4 3 6 7 6 7 6 7 7 6 7 7 8 9 9 9 8 11 12 13 12 11 13 13 12 12 11 13 15 18 17 12 7 4 3 3 5 4 4 5 7 13 19 22 22 13 0 2 7 5 3 5 5 5 8
8 6 4 7 8 9 4 4 5 2 7 10 7 4 3 6 9 9 9 11 8 6 9 8 6 9 12 10 9 10 10 13 12 12 10 2 9 16 9 12 10 6 9 6 6 6 5 5 6 7 7 6 7 6 8 9 8 9 9 10 13 14 11 9 10 10 8 8 8 9 11 14 17 18 12 7 4 2 3 4 4 5 5 6 11 18 25 20 7 3 6 5 5 7 8 7 9
8 9 6 4 7 8 4 7 8 3 6 5 2 1 6 14 11 7 7 5 6 8 9 13 14 11 10 9 8 7 6 8 9 11 11 7 8 7 4 5 3 5 13 13 11 9 7 6 5 6 7 8 8 6 6 7 8 10 9 10 13 13 9 6 6 7 8 9 9 9 10 11 13 17 17 13 9 5 3 4 5 5 5 6 7 10 17 22 15 10 13 8 1 4 7 8 12
7 7 3 4 4 5 8 8 4 5 9 8 6 4 10 17 9 7 11 5 7 10 7 13 19 15 12 9 8 7 4 6 11 12 11 8 5 3 4 6 9 9 5 7 14 13 11 10 7 6 8 9 8 6 6 7 7 9 11 10 11 11 8 6 7 8 9 10 11 11 12 13 13 13 15 17 15 11 7 5 5 5 5 5 6 8 9 15 16 15 21 14 1 3 5 5 12
6 9 5 9 4 2 10 6 1 7 12 13 10 1 5 15 11 9 14 9 8 10 9 15 17 13 12 11 9 8 5 6 10 12 10 7 5 5 6 7 13 13 -3 -5 11 15 10 10 9 7 8 8 8 6 6 7 7 8 12 11 10 10 8 7 8 8 9 11 12 11 10 12 16 17 14 14 15 15 12 7 5 5 6 5 5 7 6 9 13 14 20 18 6 7 10 5 9
6 14 10 9 8 9 12 7 5 7 5 7 4 -3 3 11 9 6 5 6 9 8 9 15 14 9 7 8 8 9 10 8 6 7 7 8 8 6 6 6 11 17 4 -3 10 14 6 7 9 7 6 7 8 8 7 7 7 8 12 12 10 8 7 7 6 6 7 8 10 11 9 8 13 22 22 14 12 14 13 9 7 5 6 7 4 6 6 6 9 10 15 17 7 5 8 7 7
8 16 12 9 15 19 15 13 13 7 4 8 5 4 7 7 8 5 1 6 10 9 11 13 12 13 10 9 12 14 16 15 13 12 10 12 13 9 8 10 13 15 9 5 10 6 1 7 10 8 7 5 6 8 8 9 8 9 12 12 10 8 7 6 4 4 4 5 7 9 10 8 8 19 30 24 13 12 13 10 8 7 6 7 6 6 6 6 7 7 9 12 9 5 4 5 7
9 11 9 10 17 14 9 14 15 8 8 11 10 9 8 10 11 3 2 11 7 6 15 12 7 13 15 13 14 14 16 16 15 17 17 16 15 13 12 13 12 11 9 8 8 4 2 7 9 10 10 8 6 6 7 9 9 9 12 12 11 8 6 5 3 3 3 3 5 5 8 10 7 10 26 32 23 12 11 11 9 7 7 7 7 7 7 6 6 7 7 8 8 8 7 7 8
10 10 10 9 12 9 8 12 10 9 10 10 9 5 5 13 12 3 4 9 2 2 13 9 7 18 23 16 7 5 11 17 14 12 13 14 14 14 13 12 11 12 12 11 9 7 6 8 11 12 12 11 9 8 8 9 9 10 11 12 11 9 7 5 3 2 3 3 4 4 5 9 10 7 13 26 29 20 12 10 9 8 8 8 8 7 7 8 7 7 9 9 8 8 9 9 9
10 12 11 8 7 8 11 11 8 9 9 8 7 3 5 10 9 4 3 4 2 4 9 9 12 22 26 14 -1 -1 12 20 20 15 11 10 12 13 12 11 8 7 9 11 10 8 5 8 11 12 12 11 9 11 11 10 10 10 12 12 10 9 6 4 3 3 4 4 4 5 5 6 9 9 10 14 22 25 18 12 9 8 8 9 9 7 6 7 8 8 9 10 9 9 10 11 10
13 13 11 7 7 7 7 7 7 7 4 3 6 7 9 10 8 4 -0 1 5 6 7 10 12 15 17 11 5 8 14 16 19 18 13 10 11 13 12 9 8 8 7 8 9 9 9 10 10 11 12 10 9 11 11 11 11 11 12 12 10 9 7 4 3 3 4 4 4 5 6 6 6 8 11 11 13 18 20 16 13 10 9 9 10 9 8 7 6 7 8 9 9 9 10 12 12
13 12 10 9 10 10 8 6 5 5 4 4 6 9 10 9 8 4 1 3 4 5 6 7 8 8 8 10 12 14 12 13 17 16 12 11 15 19 17 13 11 10 7 7 9 10 12 11 9 9 11 10 9 9 10 10 11 12 13 14 11 10 8 5 4 4 5 4 4 4 4 6 6 6 8 10 11 13 15 17 16 13 13 12 11 10 9 9 7 6 7 8 9 9 9 10 12
12 9 9 9 9 8 6 5 4 5 8 8 7 6 4 3 3 1 3 5 3 5 4 4 7 7 7 9 11 13 10 11 17 17 13 13 15 16 14 11 10 9 8 9 10 10 9 9 8 7 8 9 9 9 9 9 10 12 14 15 13 10 9 6 5 5 5 5 4 3 3 4 6 7 7 7 9 11 12 15 16 15 14 14 14 13 10 9 8 8 7 7 8 9 10 9 10
13 13 11 8 6 5 4 4 6 7 8 6 4 4 2 1 1 2 4 4 4 6 4 5 7 5 6 7 8 11 9 8 16 18 13 14 15 14 12 10 11 12 13 12 12 12 11 10 9 9 10 9 8 9 10 9 10 11 13 14 14 11 9 7 6 5 5 5 4 3 2 3 4 6 8 7 6 8 9 11 13 15 15 14 14 14 13 10 9 8 8 7 7 8 10 10 9
8 9 10 9 7 7 7 5 3 4 6 5 4 4 4 4 4 4 6 7 7 7 5 7 8 5 6 8 8 11 10 11 16 15 13 19 22 21 19 14 11 12 13 13 12 12 13 13 11 11 11 10 9 9 10 10 9 10 12 14 14 13 10 8 7 6 6 5 5 4 2 2 3 5 7 7 6 6 6 7 8 11 13 14 14 14 14 12 11 10 8 8 8 8 8 9 9
6 5 7 9 8 7 8 8 5 2 3 7 7 5 6 9 9 8 10 10 6 6 9 10 8 5 7 8 7 9 10 13 15 12 12 21 23 22 21 16 10 9 13 17 17 13 12 12 12 12 12 12 12 11 10 11 11 11 13 14 14 14 11 9 8 7 7 6 5 4 3 2 3 5 7 8 7 6 6 6 6 7 8 10 12 14 13 12 11 10 10 9 9 9 8 8 8
7 7 6 5 5 7 8 8 7 6 6 8 9 10 10 11 11 13 13 11 6 7 12 11 7 7 9 8 7 9 11 13 15 13 11 15 20 21 22 20 12 8 11 17 17 14 13 12 12 10 9 10 11 11 11 11 13 13 13 14 15 14 12 10 9 8 7 7 5 4 3 3 3 5 7 8 8 7 7 6 6 7 7 7 8 10 11 12 10 9 8 8 8 8 9 9 9
9 9 10 8 5 5 6 6 7 10 10 8 7 10 11 8 10 14 13 9 8 8 8 6 6 8 9 9 10 10 10 11 14 14 12 11 16 23 23 20 17 12 11 14 15 14 13 14 15 14 12 14 13 13 12 10 12 13 13 14 15 14 14 12 9 9 8 7 6 4 3 3 4 5 7 8 8 8 7 7 6 6 7 8 8 8 9 10 10 9 9 7 6 5 6 7 8
9 8 8 9 9 7 6 5 7 9 10 10 9 8 7 5 5 9 9 8 11 11 9 7 7 9 10 11 13 10 8 10 11 12 14 10 11 21 23 17 15 14 13 14 15 13 12 13 15 15 15 13 9 10 11 9 10 13 13 14 14 15 15 13 12 11 9 8 6 5 5 5 5 5 7 8 8 8 7 6 7 7 8 9 9 10 10 10 10 10 10 9 8 6 5 4 4
7 6 6 6 7 8 6 4 5 7 8 9 8 6 6 5 3 5 7 7 8 7 7 9 8 9 10 9 7 5 6 10 9 10 14 13 10 13 18 17 14 12 11 11 11 10 11 12 12 12 14 13 9 9 10 8 9 11 12 12 14 14 14 14 14 12 11 10 8 7 6 6 6 6 8 9 8 7 6 6 7 9 10 10 10 11 12 13 13 13 12 11 10 9 8 6 4
4 5 7 5 4 5 5 4 2 3 6 6 4 2 4 4 0 -1 1 1 2 3 4 7 8 8 9 6 5 5 6 9 10 9 11 14 12 8 11 16 15 12 11 10 9 9 10 11 9 10 13 14 12 11 9 8 9 10 11 12 13 15 15 15 15 13 12 11 10 9 8 7 8 8 9 9 8 7 7 7 8 9 9 10 10 11 11 13 13 14 15 15 14 13 11 9 7
4 3 5 6 6 6 6 8 5 2 3 5 5 4 3 4 2 -1 1 2 3 6 6 6 6 6 6 7 10 10 9 9 8 9 9 11 13 10 9 13 14 14 14 11 10 10 10 10 9 8 10 11 11 11 11 11 11 11 12 12 12 14 16 16 16 15 14 13 11 10 9 9 9 9 10 9 8 7 7 8 9 8 8 9 10 10 10 11 10 11 13 15 16 17 16 15 12
4 4 4 5 8 7 5 9 9 6 4 4 6 6 5 7 8 5 5 5 4 5 4 3 5 8 8 10 14 11 9 10 8 9 10 9 10 11 10 10 11 12 14 14 13 11 10 10 10 9 9 9 9 10 11 12 12 13 13 12 12 13 14 14 15 16 16 15 13 12 11 10 10 10 9 8 8 8 8 8 8 7 8 9 9 10 9 9 9 9 9 10 11 13 15 17 17
4 4 5 4 6 7 5 7 8 7 6 6 8 6 8 13 12 7 5 6 6 6 7 6 6 9 9 8 12 11 7 9 9 8 10 10 10 12 11 10 9 10 12 15 15 13 11 10 10 10 11 10 10 10 11 11 11 11 11 11 13 14 14 14 14 14 14 15 14 13 12 11 10 10 9 9 9 8 8 8 6 6 7 7 8 8 9 9 9 9 9 9 9 9 10 11 14
6 4 4 4 5 7 7 7 8 6 5 7 8 6 7 12 11 7 6 7 8 9 9 8 5 6 7 6 8 12 11 11 9 6 7 9 10 11 10 9 10 10 10 12 15 16 14 10 7 8 10 11 11 11 11 10 11 11 10 10 11 13 14 15 16 15 13 13 14 13 12 12 11 10 10 10 9 9 8 6 5 6 6 6 7 8 9 10 11 12 12 12 12 11 11 9 9
Height
5824 5825 5826 5828 5829 5831 5831 5832 5833 5834 5835 5835 5834 5834 5834 5834 5835 5838 5840 5842 5842 5841 5841 5842 5844 5846 5847 5848 5850 5851 5851 5852 5852 5852 5852 5852 5853 5853 5854 5854 5854 5852 5850 5850 5850 5846 5844 5845 5846 5847 5847 5847 5847 5848 5848 5849 5849 5848 5847 5847 5847 5847 5847 5848 5848 5848 5848 5848 5848 5848 5848 5848 5847 5847 5847 5848 5848 5847 5847 5848 5848 5849 5848 5848 5849 5851 5853 5854 5854 5855 5856 5856 5857 5858 5858 5858 5859
5822 5824 5825 5826 5827 5828 5829 5830 5831 5832 5832 5831 5830 5832 5833 5834 5835 5838 5839 5839 5839 5839 5840 5842 5844 5846 5847 5848 5849 5850 5850 5851 5851 5851 5850 5851 5851 5851 5852 5852 5851 5851 5849 5848 5850 5848 5844 5844 5845 5845 5845 5846 5846 5846 5847 5847 5846 5846 5845 5845 5845 5845 5845 5846 5846 5845 5845 5845 5846 5846 5846 5845 5845 5845 5845 5845 5846 5846 5846 5847 5847 5848 5848 5848 5848 5850 5852 5853 5854 5854 5855 5855 5856 5856 5857 5857 5857
5821 5822 5822 5824 5825 5826 5827 5828 5829 5829 5829 5828 5829 5831 5832 5833 5835 5836 5835 5835 5836 5838 5840 5842 5844 5846 5848 5848 5848 5849 5849 5850 5850 5850 5849 5849 5850 5850 5850 5850 5849 5849 5848 5846 5847 5847 5846 5844 5844 5843 5843 5844 5844 5844 5845 5845 5844 5844 5843 5844 5843 5843 5843 5843 5843 5843 5843 5842 5842 5843 5843 5843 5843 5842 5843 5843 5844 5844 5845 5845 5846 5847 5847 5848 5848 5849 5850 5851 5852 5853 5853 5854 5854 5855 5855 5855 5856
5819 5820 5821 5822 5823 5824 5824 5824 5825 5826 5827 5827 5828 5831 5831 5832 5833 5833 5832 5834 5837 5839 5841 5842 5844 5845 5847 5847 5847 5848 5848 5848 5848 5848 5848 5848 5848 5848 5848 5848 5848 5847 5846 5844 5844 5844 5845 5844 5843 5842 5841 5841 5842 5842 5842 5842 5842 5842 5841 5841 5841 5841 5841 5841 5840 5840 5840 5840 5839 5839 5840 5840 5840 5840 5840 5841 5841 5842 5843 5843 5844 5845 5846 5846 5846 5847 5848 5849 5851 5851 5852 5852 5853 5853 5854 5854 5854
5818 5819 5820 5820 5821 5821 5821 5822 5824 5824 5826 5827 5828 5830 5831 5831 5832 5833 5832 5833 5836 5838 5841 5842 5843 5844 5845 5846 5847 5847 5847 5847 5847 5846 5846 5846 5846 5846 5846 5846 5845 5844 5843 5843 5842 5841 5842 5841 5840 5840 5839 5839 5840 5840 5840 5840 5840 5840 5839 5839 5839 5838 5838 5838 5838 5837 5837 5837 5836 5836 5836 5837 5837 5838 5838 5838 5839 5839 5840 5841 5842 5843 5844 5844 5844 5844 5846 5847 5849 5849 5850 5850 5851 5852 5852 5852 5853
5817 5818 5818 5818 5818 5819 5820 5822 5823 5823 5825 5827 5828 5829 5830 5831 5832 5834 5834 5832 5834 5837 5839 5841 5842 5843 5844 5845 5845 5845 5846 5846 5845 5845 5844 5843 5843 5843 5844 5844 5843 5842 5841 5841 5840 5840 5840 5839 5838 5837 5837 5837 5838 5838 5838 5838 5838 5837 5837 5836 5836 5836 5836 5835 5835 5834 5834 5834 5834 5834 5834 5834 5835 5835 5835 5836 5836 5837 5838 5839 5840 5841 5842 5842 5843 5843 5844 5845 5846 5847 5848 5849 5849 5850 5851 5851 5851
5815 5816 5816 5816 5817 5819 5821 5823 5824 5824 5825 5826 5827 5827 5829 5830 5831 5833 5833 5831 5833 5836 5838 5840 5841 5842 5843 5843 5843 5843 5843 5843 5843 5842 5842 5841 5841 5841 5841 5841 5840 5840 5839 5839 5839 5839 5838 5837 5836 5836 5836 5836 5836 5837 5836 5836 5836 5835 5835 5835 5834 5834 5834 5833 5832 5832 5832 5831 5831 5831 5831 5832 5832 5833 5833 5834 5834 5835 5836 5838 5839 5839 5840 5841 5842 5843 5843 5843 5844 5845 5845 5847 5848 5848 5849 5849 5850
5814 5815 5815 5816 5818 5820 5821 5822 5824 5824 5824 5825 5826 5826 5828 5829 5830 5832 5830 5829 5832 5834 5836 5838 5839 5840 5841 5841 5841 5841 5841 5841 5840 5840 5840 5840 5840 5839 5839 5838 5838 5838 5837 5838 5838 5837 5837 5836 5836 5836 5836 5836 5835 5835 5835 5834 5833 5833 5833 5833 5833 5832 5832 5831 5830 5830 5830 5829 5829 5829 5830 5830 5830 5831 5831 5832 5833 5833 5834 5835 5837 5837 5838 5839 5841 5842 5841 5842 5843 5843 5844 5845 5846 5846 5847 5847 5848
5814 5814 5815 5816 5818 5820 5820 5821 5823 5823 5823 5825 5825 5826 5828 5828 5830 5830 5827 5828 5832 5833 5835 5836 5837 5838 5839 5839 5839 5839 5839 5839 5838 5837 5838 5838 5838 5838 5837 5837 5837 5836 5836 5836 5836 5836 5836 5836 5835 5835 5835 5834 5834 5833 5832 5832 5832 5832 5832 5832 5831 5831 5830 5829 5829 5828 5828 5828 5828 5828 5828 5828 5829 5829 5830 5830 5831 5831 5832 5833 5834 5835 5836 5837 5839 5840 5840 5840 5841 5841 5842 5843 5844 5844 5845 5845 5846
5814 5815 5816 5816 5817 5819 5820 5820 5821 5822 5823 5825 5825 5826 5827 5828 5829 5828 5826 5829 5831 5832 5833 5835 5836 5837 5837 5837 5837 5837 5837 5837 5836 5835 5835 5836 5836 5835 5835 5835 5835 5835 5835 5835 5835 5835 5835 5834 5834 5833 5833 5832 5831 5831 5831 5831 5831 5831 5831 5830 5830 5829 5828 5828 5827 5827 5826 5826 5826 5826 5826 5826 5827 5827 5828 5829 5829 5830 5830 5832 5833 5833 5833 5835 5837 5838 5838 5838 5839 5840 5840 5841 5842 5843 5843 5844 5844
5814 5815 5816 5816 5817 5819 5820 5820 5820 5821 5823 5824 5826 5827 5826 5827 5827 5825 5826 5829 5830 5832 5833 5834 5835 5835 5835 5835 5835 5835 5835 5835 5834 5834 5834 5834 5834 5833 5833 5833 5833 5833 5833 5833 5833 5833 5833 5832 5832 5831 5831 5830 5830 5830 5830 5830 5830 5830 5829 5829 5828 5828 5827 5826 5825 5825 5824 5824 5824 5824 5824 5824 5824 5825 5825 5826 5827 5828 5829 5830 5831 5831 5832 5833 5834 5835 5836 5836 5837 5838 5839 5839 5840 5841 5841 5842 5843
5814 5815 5817 5817 5818 5819 5820 5821 5821 5821 5821 5824 5826 5827 5826 5825 5826 5826 5827 5829 5830 5831 5832 5833 5834 5834 5834 5834 5833 5833 5833 5833 5832 5833 5833 5832 5832 5832 5832 5832 5831 5831 5831 5831 5831 5831 5831 5831 5830 5830 5830 5829 5829 5829 5829 5829 5829 5828 5828 5828 5827 5826 5825 5824 5823 5823 5823 5822 5822 5821 5822 5822 5822 5822 5823 5824 5825 5826 5827 5828 5829 5829 5830 5831 5832 5833 5834 5834 5835 5836 5837 5838 5838 5839 5840 5841 5841
5815 5817 5818 5819 5819 5820 5821 5821 5821 5821 5821 5823 5825 5825 5825 5825 5826 5827 5827 5828 5829 5831 5832 5832 5832 5833 5833 5832 5831 5831 5831 5831 5831 5832 5832 5831 5831 5831 5831 5830 5830 5830 5830 5830 5830 5830 5830 5830 5830 5830 5830 5829 5829 5829 5828 5828 5828 5827 5827 5826 5826 5825 5824 5823 5822 5822 5821 5820 5819 5819 5819 5819 5819 5820 5820 5822 5823 5824 5825 5826 5827 5828 5828 5829 5829 5830 5831 5832 5833 5833 5835 5835 5836 5837 5838 5839 5840
5817 5818 5819 5819 5819 5820 5820 5821 5821 5822 5822 5823 5823 5822 5822 5825 5827 5827 5827 5828 5829 5830 5831 5831 5831 5832 5831 5831 5830 5829 5829 5830 5830 5830 5830 5830 5830 5830 5830 5830 5830 5830 5830 5830 5829 5829 5830 5830 5829 5829 5829 5829 5828 5828 5827 5827 5827 5826 5826 5825 5825 5824 5823 5823 5822 5820 5819 5817 5816 5816 5816 5817 5817 5818 5818 5820 5821 5822 5823 5824 5825 5826 5826 5826 5827 5828 5829 5830 5831 5832 5833 5833 5834 5835 5837 5838 5839
5818 5818 5818 5818 5818 5819 5819 5820 5821 5822 5822 5823 5824 5821 5820 5824 5827 5827 5827 5828 5829 5829 5830 5830 5830 5830 5830 5830 5828 5828 5828 5828 5828 5828 5828 5829 5830 5829 5829 5829 5830 5830 5829 5829 5829 5829 5829 5829 5828 5828 5828 5828 5827 5827 5826 5826 5825 5825 5825 5824 5824 5823 5822 5821 5820 5819 5817 5815 5813 5813 5813 5814 5815 5815 5816 5818 5819 5820 5821 5822 5823 5824 5824 5824 5825 5826 5827 5827 5829 5830 5831 5832 5833 5834 5835 5837 5838
5818 5818 5817 5817 5817 5817 5818 5818 5820 5821 5821 5822 5824 5823 5822 5824 5826 5827 5827 5828 5829 5829 5829 5829 5829 5829 5829 5829 5827 5826 5827 5827 5827 5828 5828 5828 5829 5829 5829 5830 5830 5830 5829 5829 5829 5828 5828 5828 5828 5827 5827 5827 5826 5825 5825 5824 5824 5824 5823 5823 5822 5822 5821 5819 5818 5816 5815 5813 5811 5810 5810 5811 5812 5813 5814 5816 5817 5818 5819 5820 5820 5821 5822 5822 5823 5823 5824 5825 5826 5828 5829 5830 5831 5832 5834 5835 5836
5818 5817 5816 5815 5815 5815 5815 5815 5818 5821 5821 5822 5823 5823 5824 5825 5825 5826 5827 5827 5828 5828 5828 5828 5828 5828 5828 5827 5826 5825 5825 5826 5826 5827 5827 5828 5829 5829 5830 5830 5830 5830 5830 5829 5829 5828 5827 5827 5826 5826 5826 5825 5825 5824 5824 5823 5823 5823 5822 5821 5820 5820 5819 5817 5816 5814 5813 5811 5809 5808 5808 5809 5811 5812 5813 5814 5816 5816 5817 5818 5818 5818 5819 5820 5821 5821 5822 5823 5824 5826 5828 5829 5830 5831 5832 5834 5834
5816 5815 5814 5813 5813 5814 5813 5813 5817 5821 5821 5822 5823 5823 5824 5824 5825 5826 5826 5827 5827 5827 5827 5827 5827 5827 5826 5825 5825 5824 5824 5824 5825 5826 5826 5827 5828 5830 5831 5830 5830 5829 5829 5828 5828 5827 5826 5826 5825 5825 5825 5824 5824 5823 5822 5822 5822 5822 5821 5820 5819 5818 5817 5816 5814 5813 5811 5809 5808 5807 5807 5808 5809 5810 5811 5812 5814 5814 5815 5816 5816 5817 5817 5818 5819 5819 5820 5821 5822 5824 5826 5828 5829 5830 5831 5832 5833
5815 5815 5814 5814 5813 5814 5814 5815 5819 5821 5822 5823 5823 5822 5823 5824 5825 5826 5826 5826 5827 5826 5826 5825 5825 5825 5825 5825 5824 5823 5823 5824 5825 5826 5826 5827 5828 5829 5830 5829 5829 5828 5827 5827 5826 5825 5825 5824 5824 5824 5824 5823 5823 5822 5821 5821 5820 5820 5819 5818 5817 5816 5815 5814 5813 5812 5810 5809 5807 5806 5807 5807 5807 5808 5809 5810 5811 5812 5813 5814 5814 5815 5816 5817 5817 5818 5818 5819 5821 5823 5825 5826 5827 5828 5829 5830 5831
5816 5815 5815 5815 5815 5815 5816 5817 5819 5820 5821 5822 5822 5822 5823 5824 5825 5826 5826 5825 5826 5826 5825 5825 5824 5824 5824 5824 5824 5823 5823 5824 5824 5825 5826 5827 5827 5827 5828 5828 5828 5827 5826 5825 5824 5824 5823 5823 5823 5822 5822 5822 5821 5821 5820 5819 5819 5818 5817 5815 5815 5814 5813 5812 5812 5811 5809 5808 5807 5806 5806 5806 5806 5806 5807 5808 5809 5810 5811 5811 5812 5813 5814 5815 5816 5817 5817 5818 5820 5822 5823 5824 5825 5826 5826 5827 5827
5816 5816 5816 5816 5816 5816 5816 5817 5818 5820 5821 5821 5822 5824 5824 5824 5825 5825 5825 5825 5825 5825 5824 5824 5824 5823 5823 5823 5823 5823 5823 5824 5824 5825 5825 5825 5825 5825 5826 5826 5826 5826 5825 5824 5823 5823 5822 5822 5821 5821 5821 5820 5820 5819 5818 5818 5817 5816 5816 5814 5813 5812 5811 5810 5810 5809 5808 5807 5806 5806 5805 5805 5805 5805 5805 5806 5807 5809 5809 5809 5810 5811 5812 5813 5814 5816 5817 5818 5819 5820 5821 5823 5823 5823 5824 5823 5824
5817 5816 5816 5815 5815 5815 5816 5817 5818 5820 5821 5822 5824 5825 5825 5825 5824 5824 5825 5825 5825 5824 5824 5823 5823 5823 5823 5823 5823 5823 5823 5823 5824 5824 5824 5824 5824 5824 5825 5825 5825 5824 5824 5823 5823 5822 5822 5821 5821 5820 5820 5819 5819 5818 5817 5816 5815 5815 5814 5813 5812 5811 5810 5809 5809 5808 5807 5806 5805 5805 5804 5804 5803 5803 5803 5804 5806 5807 5808 5808 5808 5809 5810 5811 5813 5814 5815 5816 5817 5819 5820 5821 5821 5821 5821 5821 5822
5817 5816 5815 5815 5815 5815 5816 5818 5819 5820 5821 5822 5823 5824 5824 5824 5824 5824 5825 5825 5824 5824 5823 5823 5822 5822 5822 5822 5822 5823 5823 5823 5823 5823 5823 5823 5823 5823 5823 5823 5823 5822 5822 5822 5821 5821 5820 5820 5819 5819 5819 5818 5818 5817 5816 5815 5814 5813 5813 5812 5811 5810 5809 5808 5807 5807 5807 5806 5804 5803 5803 5803 5802 5802 5802 5802 5803 5804 5805 5806 5806 5807 5808 5809 5810 5812 5813 5814 5815 5817 5818 5818 5819 5819 5820 5820 5821
5818 5817 5817 5817 5817 5817 5818 5819 5820 5820 5821 5822 5823 5824 5823 5824 5824 5824 5825 5825 5824 5824 5823 5822 5822 5822 5822 5822 5822 5823 5823 5823 5823 5822 5822 5822 5822 5822 5822 5822 5821 5821 5820 5820 5819 5819 5818 5818 5817 5817 5817 5817 5817 5816 5815 5814 5813 5812 5812 5811 5810 5809 5808 5807 5806 5806 5805 5805 5804 5803 5802 5802 5801 5801 5801 5801 5801 5802 5803 5803 5804 5804 5805 5807 5808 5810 5811 5812 5813 5815 5816 5816 5817 5817 5818 5818 5820
5820 5819 5819 5819 5820 5819 5820 5821 5821 5821 5822 5823 5824 5824 5824 5824 5824 5825 5825 5824 5824 5823 5823 5822 5821 5821 5821 5821 5821 5822 5822 5822 5822 5822 5822 5822 5822 5822 5822 5821 5820 5820 5819 5818 5818 5817 5816 5815 5815 5814 5814 5815 5815 5814 5814 5813 5812 5811 5811 5810 5809 5809 5807 5806 5805 5805 5804 5803 5803 5802 5802 5801 5800 5800 5799 5799 5800 5800 5801 5801 5801 5802 5803 5804 5805 5807 5808 5810 5811 5812 5814 5814 5814 5815 5816 5817 5818
5822 5821 5819 5820 5822 5821 5821 5821 5822 5823 5824 5825 5825 5825 5825 5825 5825 5825 5824 5824 5824 5823 5822 5822 5821 5821 5821 5821 5820 5820 5821 5821 5821 5821 5821 5821 5821 5821 5821 5821 5820 5819 5819 5818 5817 5815 5814 5813 5813 5812 5812 5812 5812 5812 5811 5811 5810 5809 5809 5809 5808 5807 5806 5805 5804 5803 5803 5802 5802 5802 5801 5800 5800 5799 5799 5799 5799 5799 5799 5799 5799 5800 5801 5802 5803 5804 5805 5807 5808 5810 5811 5811 5812 5812 5814 5815 5816
5822 5822 5821 5821 5822 5822 5822 5823 5823 5824 5825 5826 5826 5826 5826 5825 5825 5824 5824 5823 5823 5822 5822 5822 5822 5821 5821 5821 5821 5820 5820 5820 5820 5820 5820 5820 5820 5821 5820 5820 5819 5819 5818 5817 5816 5815 5813 5812 5811 5811 5811 5811 5811 5810 5810 5809 5808 5808 5807 5806 5806 5805 5804 5804 5803 5802 5802 5801 5801 5800 5800 5799 5799 5798 5798 5798 5797 5797 5797 5796 5796 5797 5798 5800 5801 5801 5802 5803 5804 5806 5808 5808 5809 5810 5811 5813 5814
5822 5823 5822 5822 5822 5823 5823 5824 5825 5825 5826 5826 5826 5827 5827 5826 5825 5823 5823 5823 5822 5822 5822 5822 5822 5822 5822 5821 5821 5821 5820 5820 5819 5819 5819 5819 5820 5820 5819 5819 5818 5818 5818 5817 5816 5814 5813 5811 5811 5810 5810 5809 5809 5809 5809 5808 5807 5806 5805 5804 5804 5803 5802 5802 5801 5800 5800 5799 5799 5798 5798 5797 5797 5797 5796 5796 5795 5795 5795 5794 5794 5794 5795 5797 5798 5798 5799 5800 5801 5803 5804 5805 5806 5807 5809 5811 5812
5823 5824 5823 5822 5823 5824 5824 5824 5826 5826 5825 5825 5826 5827 5827 5826 5825 5824 5823 5822 5822 5821 5821 5821 5821 5821 5821 5820 5820 5820 5819 5819 5819 5819 5819 5819 5819 5819 5818 5818 5818 5818 5817 5816 5815 5813 5812 5810 5809 5809 5808 5808 5808 5807 5807 5806 5806 5805 5804 5803 5802 5801 5800 5800 5799 5799 5798 5797 5796 5796 5796 5795 5795 5795 5795 5794 5794 5793 5792 5792 5792 5791 5792 5793 5794 5795 5796 5797 5799 5800 5802 5802 5804 5806 5807 5809 5810
5824 5824 5823 5823 5823 5824 5824 5825 5826 5825 5825 5826 5827 5827 5826 5825 5825 5824 5823 5822 5821 5821 5820 5820 5819 5819 5819 5818 5818 5818 5818 5818 5819 5819 5819 5818 5818 5817 5817 5817 5816 5816 5816 5815 5813 5812 5810 5809 5808 5807 5807 5806 5806 5805 5805 5804 5804 5803 5802 5801 5800 5799 5798 5798 5797 5796 5796 5795 5794 5793 5793 5793 5793 5793 5792 5792 5792 5791 5791 5790 5790 5789 5789 5790 5791 5792 5793 5795 5796 5798 5799 5800 5802 5804 5806 5807 5808
5825 5825 5824 5823 5823 5823 5824 5824 5824 5825 5826 5827 5827 5827 5825 5824 5824 5823 5822 5821 5821 5820 5820 5819 5818 5818 5817 5816 5817 5817 5818 5818 5819 5818 5817 5817 5816 5816 5815 5815 5815 5814 5814 5813 5812 5810 5809 5807 5806 5805 5805 5804 5804 5803 5803 5802 5801 5801 5800 5799 5798 5797 5796 5795 5795 5794 5793 5792 5791 5791 5790 5791 5791 5790 5790 5790 5790 5790 5789 5789 5788 5787 5787 5788 5788 5789 5790 5792 5794 5795 5796 5798 5799 5801 5803 5805 5806
5825 5825 5825 5824 5823 5822 5822 5822 5823 5824 5826 5826 5826 5826 5824 5823 5823 5822 5822 5821 5820 5819 5819 5818 5817 5817 5816 5815 5817 5818 5817 5816 5816 5815 5815 5814 5814 5813 5813 5813 5813 5812 5812 5811 5810 5808 5807 5805 5804 5803 5802 5802 5802 5801 5801 5800 5799 5799 5798 5797 5796 5795 5794 5793 5792 5792 5791 5790 5789 5788 5788 5788 5788 5788 5788 5788 5788 5788 5788 5788 5787 5786 5786 5786 5786 5787 5788 5790 5791 5793 5794 5796 5797 5799 5802 5804 5805
5825 5826 5827 5826 5825 5824 5822 5822 5822 5823 5825 5825 5825 5824 5823 5823 5822 5822 5821 5820 5820 5819 5818 5817 5816 5816 5816 5816 5816 5816 5815 5814 5812 5812 5812 5812 5811 5810 5810 5810 5810 5810 5809 5809 5808 5806 5805 5803 5801 5800 5799 5799 5799 5799 5799 5798 5797 5796 5796 5795 5794 5793 5792 5792 5791 5790 5789 5788 5787 5786 5785 5785 5785 5785 5785 5786 5786 5786 5786 5786 5786 5785 5784 5784 5784 5785 5786 5788 5790 5791 5792 5794 5796 5798 5800 5801 5803
5825 5826 5827 5827 5826 5825 5824 5824 5823 5823 5823 5824 5823 5822 5823 5823 5823 5822 5821 5820 5819 5818 5817 5816 5815 5815 5815 5815 5814 5813 5812 5812 5810 5809 5809 5809 5808 5807 5807 5807 5807 5807 5806 5806 5805 5804 5803 5801 5799 5798 5797 5797 5797 5797 5796 5796 5795 5794 5793 5792 5791 5791 5790 5790 5789 5788 5787 5786 5785 5785 5784 5783 5783 5782 5782 5783 5783 5783 5784 5784 5784 5783 5783 5782 5782 5783 5785 5786 5788 5789 5791 5793 5795 5797 5798 5799 5800
5826 5827 5828 5828 5827 5826 5825 5825 5825 5824 5824 5824 5823 5823 5823 5824 5823 5822 5820 5819 5819 5818 5816 5815 5814 5813 5812 5812 5811 5811 5810 5810 5808 5807 5807 5807 5806 5804 5804 5803 5803 5803 5803 5803 5802 5802 5801 5799 5797 5796 5795 5794 5794 5794 5794 5793 5793 5792 5791 5791 5789 5788 5788 5787 5787 5787 5786 5785 5784 5783 5782 5782 5781 5780 5780 5780 5781 5781 5781 5782 5782 5781 5781 5781 5780 5781 5782 5784 5786 5788 5789 5790 5793 5795 5796 5797 5798
5826 5827 5828 5828 5827 5826 5826 5826 5826 5826 5826 5825 5824 5824 5824 5823 5822 5821 5820 5819 5818 5817 5815 5814 5813 5811 5810 5809 5810 5810 5809 5808 5807 5805 5804 5803 5802 5801 5801 5800 5800 5800 5800 5800 5800 5799 5798 5797 5795 5794 5793 5792 5792 5791 5791 5791 5791 5790 5789 5789 5788 5787 5786 5786 5786 5785 5784 5783 5782 5782 5781 5780 5779 5779 5778 5778 5779 5779 5779 5780 5780 5780 5780 5779 5779 5779 5780 5781 5784 5785 5787 5788 5790 5792 5794 5795 5796
5826 5826 5827 5827 5827 5826 5826 5826 5826 5826 5826 5826 5825 5825 5824 5823 5821 5820 5819 5817 5815 5813 5812 5811 5810 5809 5809 5809 5809 5809 5808 5806 5805 5803 5802 5800 5799 5799 5799 5798 5797 5797 5797 5797 5797 5796 5795 5794 5793 5792 5791 5790 5789 5789 5789 5789 5788 5787 5787 5786 5786 5785 5785 5784 5784 5784 5783 5782 5781 5780 5779 5779 5778 5777 5777 5776 5776 5777 5777 5778 5778 5778 5778 5778 5778 5778 5779 5780 5781 5783 5784 5786 5788 5790 5791 5793 5794
5826 5826 5826 5826 5827 5826 5826 5825 5826 5826 5826 5826 5826 5825 5824 5822 5820 5819 5818 5816 5813 5810 5809 5809 5808 5807 5806 5806 5806 5805 5804 5803 5802 5800 5799 5798 5798 5797 5796 5796 5795 5795 5795 5795 5794 5794 5793 5791 5790 5789 5789 5788 5788 5787 5787 5787 5786 5785 5785 5784 5784 5784 5783 5783 5783 5782 5782 5780 5780 5779 5778 5777 5776 5775 5775 5774 5774 5775 5775 5776 5776 5776 5777 5777 5777 5777 5778 5779 5780 5781 5782 5784 5786 5788 5789 5790 5792
5826 5826 5826 5826 5826 5827 5826 5826 5826 5826 5826 5826 5826 5825 5824 5822 5821 5820 5819 5817 5814 5811 5808 5807 5807 5805 5804 5802 5801 5801 5800 5800 5799 5798 5797 5796 5796 5795 5794 5794 5793 5793 5793 5793 5792 5792 5791 5789 5788 5787 5787 5787 5786 5785 5785 5785 5785 5783 5782 5782 5782 5782 5781 5781 5781 5781 5780 5779 5778 5777 5776 5775 5774 5773 5772 5772 5772 5772 5773 5774 5774 5775 5775 5775 5775 5776 5777 5778 5779 5780 5781 5783 5784 5786 5787 5787 5789
5827 5827 5827 5826 5826 5827 5826 5826 5826 5826 5826 5826 5826 5825 5824 5823 5822 5822 5820 5818 5816 5814 5811 5807 5805 5804 5802 5801 5799 5798 5797 5796 5795 5795 5795 5794 5793 5793 5792 5792 5792 5791 5791 5790 5790 5790 5789 5788 5787 5786 5785 5785 5784 5783 5783 5783 5783 5782 5780 5780 5780 5780 5780 5780 5779 5779 5779 5778 5777 5776 5775 5774 5773 5771 5770 5770 5770 5770 5771 5772 5772 5773 5773 5774 5774 5774 5775 5776 5777 5778 5779 5781 5782 5784 5784 5785 5786
5827 5827 5827 5826 5826 5826 5826 5826 5826 5825 5825 5825 5825 5825 5824 5823 5823 5822 5820 5818 5817 5815 5813 5810 5807 5804 5802 5801 5799 5798 5797 5795 5794 5793 5793 5792 5792 5792 5791 5791 5790 5789 5788 5788 5787 5787 5786 5785 5784 5784 5783 5782 5782 5781 5781 5781 5781 5780 5778 5778 5778 5778 5778 5778 5778 5777 5777 5777 5776 5775 5774 5773 5771 5770 5769 5768 5768 5769 5769 5770 5770 5770 5771 5772 5772 5773 5773 5774 5775 5776 5777 5779 5781 5782 5782 5782 5783
5827 5827 5827 5826 5826 5826 5826 5825 5825 5825 5825 5825 5825 5825 5824 5823 5823 5821 5820 5818 5816 5815 5813 5812 5809 5806 5803 5801 5800 5799 5797 5796 5794 5792 5791 5790 5790 5790 5790 5789 5788 5787 5787 5786 5784 5784 5783 5783 5782 5781 5780 5780 5779 5779 5778 5778 5778 5778 5776 5776 5775 5776 5776 5776 5776 5776 5775 5775 5775 5774 5772 5771 5770 5769 5768 5767 5767 5767 5767 5767 5768 5769 5769 5770 5771 5771 5771 5772 5773 5774 5775 5776 5778 5779 5780 5780 5781
5827 5827 5827 5826 5826 5826 5826 5826 5826 5826 5826 5825 5825 5825 5824 5824 5823 5821 5819 5817 5815 5814 5812 5811 5808 5806 5804 5802 5801 5799 5797 5795 5793 5792 5790 5789 5788 5788 5787 5787 5786 5785 5785 5784 5782 5781 5781 5780 5780 5779 5778 5777 5777 5776 5775 5775 5775 5775 5774 5774 5773 5773 5774 5774 5774 5774 5774 5773 5773 5772 5771 5770 5769 5768 5767 5767 5766 5766 5766 5766 5766 5767 5768 5768 5769 5769 5770 5770 5771 5772 5773 5774 5775 5777 5777 5778 5779
5828 5828 5827 5827 5827 5827 5827 5826 5826 5826 5826 5825 5824 5824 5824 5824 5822 5820 5819 5817 5815 5813 5811 5809 5808 5806 5804 5803 5801 5799 5797 5795 5793 5791 5790 5788 5787 5786 5785 5784 5784 5783 5782 5781 5780 5779 5778 5778 5777 5777 5776 5775 5774 5773 5773 5773 5773 5773 5772 5772 5771 5771 5772 5772 5772 5772 5772 5771 5771 5771 5770 5769 5768 5767 5767 5766 5766 5765 5765 5765 5765 5766 5766 5767 5767 5768 5768 5769 5769 5770 5771 5771 5772 5774 5775 5776 5777
5828 5828 5828 5828 5828 5828 5827 5827 5827 5826 5825 5825 5825 5825 5825 5823 5822 5820 5818 5816 5814 5812 5810 5809 5808 5806 5804 5803 5801 5799 5797 5795 5793 5791 5789 5787 5786 5784 5783 5782 5782 5781 5780 5779 5778 5777 5776 5776 5775 5774 5774 5773 5772 5772 5771 5770 5770 5770 5770 5770 5769 5769 5769 5770 5770 5770 5770 5770 5769 5769 5768 5768 5767 5767 5766 5765 5765 5764 5764 5764 5764 5765 5765 5765 5766 5767 5767 5768 5768 5769 5769 5769 5770 5771 5773 5774 5774
5829 5829 5829 5829 5829 5828 5828 5827 5827 5827 5826 5826 5825 5825 5823 5822 5821 5820 5818 5816 5814 5813 5811 5809 5808 5806 5804 5802 5800 5798 5796 5794 5792 5790 5788 5786 5784 5783 5782 5781 5779 5778 5778 5777 5776 5775 5774 5774 5773 5772 5771 5771 5770 5770 5769 5768 5768 5768 5768 5767 5767 5767 5767 5768 5768 5768 5768 5768 5767 5767 5766 5766 5766 5765 5765 5764 5764 5763 5763 5763 5763 5763 5763 5763 5764 5765 5766 5766 5767 5767 5767 5768 5769 5769 5770 5771 5772
5831 5830 5830 5830 5829 5829 5828 5828 5828 5828 5827 5826 5825 5824 5822 5821 5820 5819 5818 5816 5814 5813 5812 5810 5808 5806 5804 5802 5799 5797 5795 5793 5791 5788 5786 5784 5783 5781 5780 5779 5777 5776 5776 5775 5775 5773 5772 5771 5771 5770 5770 5769 5769 5768 5767 5766 5766 5766 5765 5765 5764 5764 5765 5765 5765 5766 5766 5765 5765 5764 5764 5764 5764 5764 5763 5763 5762 5762 5762 5762 5762 5762 5762 5762 5762 5763 5764 5764 5765 5765 5766 5766 5767 5768 5768 5769 5770
5833 5832 5831 5830 5830 5829 5829 5829 5828 5828 5827 5826 5825 5823 5822 5821 5820 5819 5817 5816 5814 5813 5812 5810 5808 5806 5804 5802 5799 5797 5795 5792 5790 5787 5785 5783 5781 5779 5778 5777 5776 5775 5774 5774 5773 5772 5770 5770 5769 5769 5769 5768 5767 5766 5765 5764 5764 5763 5763 5762 5762 5762 5762 5763 5763 5763 5763 5763 5763 5762 5762 5762 5762 5762 5761 5761 5761 5760 5760 5760 5760 5760 5760 5761 5761 5761 5762 5762 5763 5763 5764 5764 5765 5765 5766 5767 5768
5834 5833 5833 5832 5831 5830 5830 5829 5828 5827 5826 5825 5824 5823 5823 5822 5821 5819 5817 5815 5813 5811 5810 5809 5808 5805 5803 5802 5799 5797 5795 5792 5789 5787 5785 5782 5780 5778 5777 5776 5775 5774 5773 5772 5772 5771 5769 5768 5768 5768 5767 5766 5766 5764 5763 5762 5762 5761 5761 5760 5760 5759 5760 5760 5760 5760 5761 5761 5760 5760 5760 5760 5760 5759 5759 5759 5758 5758 5758 5758 5758 5758 5759 5759 5759 5759 5760 5760 5760 5761 5761 5762 5762 5763 5763 5764 5765
5835 5835 5834 5833 5832 5831 5830 5829 5828 5827 5826 5825 5824 5823 5823 5822 5820 5818 5817 5815 5813 5811 5809 5808 5806 5804 5803 5801 5799 5797 5795 5792 5789 5787 5784 5782 5780 5778 5776 5776 5775 5774 5773 5772 5771 5770 5768 5767 5766 5766 5765 5764 5764 5763 5762 5761 5760 5759 5759 5758 5758 5757 5757 5757 5757 5758 5758 5758 5758 5758 5758 5758 5758 5757 5757 5757 5756 5756 5756 5756 5756 5756 5756 5757 5757 5757 5758 5758 5758 5758 5759 5759 5759 5760 5760 5761 5762
5836 5836 5835 5834 5832 5832 5830 5829 5828 5827 5826 5825 5825 5824 5823 5821 5819 5818 5817 5815 5814 5812 5809 5807 5805 5804 5802 5800 5798 5797 5794 5791 5789 5786 5784 5782 5780 5778 5776 5775 5774 5774 5773 5772 5770 5769 5768 5766 5765 5764 5763 5762 5762 5761 5760 5759 5758 5758 5757 5756 5755 5755 5754 5754 5755 5755 5755 5755 5755 5755 5755 5755 5755 5755 5755 5755 5754 5754 5754 5753 5753 5753 5754 5754 5754 5755 5755 5755 5755 5756 5756 5756 5757 5757 5757 5758 5758
5837 5836 5836 5835 5833 5832 5831 5830 5829 5828 5828 5826 5825 5824 5822 5820 5819 5818 5817 5815 5813 5811 5809 5807 5805 5803 5801 5799 5797 5795 5793 5791 5788 5786 5784 5782 5780 5778 5776 5775 5774 5773 5772 5771 5770 5769 5767 5766 5765 5763 5762 5762 5761 5760 5759 5758 5757 5756 5755 5754 5753 5752 5752 5752 5752 5752 5752 5752 5753 5753 5753 5753 5753 5753 5752 5752 5752 5752 5751 5751 5751 5751 5751 5751 5751 5752 5752 5752 5753 5753 5753 5753 5754 5754 5754 5755 5755
5837 5836 5835 5835 5834 5833 5832 5831 5829 5828 5827 5826 5824 5823 5822 5820 5819 5818 5816 5814 5812 5810 5809 5807 5805 5803 5801 5799 5796 5794 5792 5790 5788 5785 5783 5781 5780 5778 5776 5774 5773 5772 5771 5770 5768 5767 5766 5765 5764 5763 5762 5761 5760 5759 5758 5756 5756 5755 5754 5752 5751 5750 5750 5749 5749 5749 5749 5750 5750 5750 5750 5750 5750 5750 5750 5750 5750 5749 5749 5749 5749 5748 5748 5748 5748 5748 5749 5749 5749 5749 5750 5750 5751 5751 5751 5752 5752
5838 5837 5836 5835 5834 5833 5832 5832 5830 5828 5827 5826 5824 5823 5822 5820 5818 5817 5815 5813 5811 5810 5808 5806 5804 5802 5800 5798 5796 5794 5791 5789 5787 5785 5784 5782 5780 5777 5775 5773 5772 5771 5769 5768 5766 5765 5765 5764 5763 5762 5761 5759 5758 5757 5756 5755 5754 5753 5752 5751 5749 5749 5748 5747 5747 5747 5747 5747 5747 5747 5747 5747 5747 5747 5747 5747 5746 5746 5746 5746 5746 5746 5746 5746 5746 5745 5745 5745 5745 5745 5746 5747 5747 5748 5748 5748 5749
5839 5838 5836 5835 5835 5834 5833 5832 5830 5828 5827 5826 5825 5823 5822 5821 5819 5817 5815 5813 5812 5810 5808 5806 5804 5802 5800 5798 5796 5793 5791 5789 5786 5785 5783 5781 5780 5777 5775 5773 5771 5769 5768 5766 5765 5764 5763 5762 5761 5760 5759 5758 5757 5756 5755 5754 5753 5752 5750 5749 5747 5746 5746 5745 5745 5744 5744 5744 5744 5744 5744 5744 5744 5744 5744 5744 5743 5743 5743 5743 5743 5743 5743 5743 5743 5743 5743 5742 5741 5741 5742 5743 5743 5744 5744 5745 5745
5839 5838 5837 5836 5835 5834 5833 5832 5831 5829 5828 5826 5825 5824 5822 5821 5819 5818 5816 5814 5812 5810 5808 5806 5804 5802 5800 5798 5796 5793 5791 5788 5786 5784 5782 5781 5779 5777 5774 5772 5771 5769 5768 5766 5764 5763 5762 5761 5760 5759 5758 5757 5756 5755 5754 5752 5751 5750 5748 5747 5745 5744 5743 5743 5742 5742 5741 5741 5741 5741 5741 5741 5741 5740 5740 5740 5740 5740 5740 5740 5740 5740 5740 5740 5740 5740 5740 5739 5739 5738 5738 5738 5739 5739 5740 5740 5741
5839 5838 5837 5836 5835 5834 5833 5832 5831 5830 5828 5827 5825 5824 5822 5821 5819 5817 5816 5814 5812 5810 5809 5807 5805 5803 5801 5798 5796 5794 5791 5789 5786 5784 5782 5780 5778 5777 5775 5773 5771 5770 5768 5766 5764 5763 5761 5760 5759 5758 5757 5755 5754 5754 5753 5751 5750 5748 5747 5745 5744 5742 5741 5741 5740 5740 5739 5739 5738 5738 5738 5738 5738 5738 5737 5737 5737 5737 5737 5737 5737 5737 5736 5736 5736 5736 5736 5736 5735 5735 5734 5734 5734 5734 5735 5735 5736
5838 5837 5836 5836 5835 5834 5833 5832 5831 5830 5828 5827 5825 5824 5822 5821 5819 5817 5816 5814 5813 5811 5809 5807 5805 5803 5801 5799 5797 5794 5792 5789 5786 5784 5781 5779 5778 5777 5775 5773 5771 5769 5767 5765 5764 5762 5761 5759 5757 5756 5755 5754 5753 5752 5751 5750 5748 5747 5745 5743 5742 5741 5740 5739 5738 5737 5737 5736 5736 5736 5735 5735 5735 5735 5735 5734 5734 5734 5734 5734 5734 5734 5733 5733 5732 5732 5731 5731 5731 5731 5730 5730 5730 5729 5730 5730 5731